VK3HAG Weather Reports


time (UTC)temp
C
wind
direction
speed
KPH
gust
KPH
rain 1hr
cm
rain 24hr
cm
rain mn
cm
humidity
%
barometer
mb
20260510220005 5 0 0.0 0.0 0.00 0.00 0.00 96 1032.2
20260510214504 3 0 0.0 0.0 0.00 0.00 0.00 95 1032.0
20260510213004 3 0 0.0 0.0 0.00 0.00 0.00 94 1031.9
20260510211504 3 0 0.0 0.0 0.00 0.00 0.00 94 1031.8
20260510210004 2 0 0.0 0.0 0.00 0.00 0.00 94 1031.6
20260510204505 2 0 0.0 0.0 0.00 0.00 0.00 93 1031.5
20260510203005 3 0 0.0 0.0 0.00 0.00 0.00 93 1031.3
20260510201505 3 0 0.0 0.0 0.00 0.00 0.00 93 1031.2
20260510200005 3 0 0.0 0.0 0.00 0.00 0.00 93 1031.0
20260510194504 3 0 0.0 0.0 0.00 0.00 0.00 94 1030.8
20260510193005 3 0 0.0 0.0 0.00 0.00 0.00 93 1030.7
20260510191505 3 0 0.0 0.0 0.00 0.00 0.00 93 1030.7
20260510190005 3 0 0.0 0.0 0.00 0.00 0.00 93 1030.5
20260510184504 3 0 0.0 0.0 0.00 0.00 0.00 93 1030.4
20260510183004 3 0 0.0 0.0 0.00 0.00 0.00 93 1030.3
20260510181505 3 0 0.0 0.0 0.00 0.00 0.00 93 1030.2
20260510180005 3 0 0.0 0.0 0.00 0.00 0.00 93 1030.1
20260510174504 3 0 0.0 0.0 0.00 0.00 0.00 93 1029.9
20260510173004 3 0 0.0 0.0 0.00 0.00 0.00 93 1030.0
20260510171504 3 0 0.0 0.0 0.00 0.00 0.00 93 1030.0
20260510170004 4 0 0.0 0.0 0.00 0.00 0.00 93 1030.1
20260510164504 4 0 0.0 0.0 0.00 0.00 0.00 93 1030.0
20260510163005 4 0 0.0 0.0 0.00 0.00 0.00 92 1030.1
20260510161504 5 0 0.0 0.0 0.00 0.00 0.00 92 1030.2
20260510160004 5 0 0.0 0.0 0.00 0.00 0.00 93 1030.2
20260510154504 5 0 0.0 0.0 0.00 0.00 0.00 92 1030.3
20260510153004 5 0 0.0 0.0 0.00 0.00 0.00 92 1030.2
20260510151504 5 0 0.0 0.0 0.00 0.00 0.00 92 1030.1
20260510150004 5 0 0.0 0.0 0.00 0.00 0.00 93 1030.1
20260510144504 5 0 0.0 0.0 0.00 0.00 0.00 93 1030.3
20260510143004 5 0 0.0 0.0 0.00 0.00 0.00 92 1030.3
20260510141504 5 0 0.0 0.0 0.00 0.00 0.00 91 1030.3
20260510140026 5 0 0.0 0.0 0.00 0.00 0.00 92 1030.4
20260510134505 5 0 0.0 0.0 0.00 0.00 0.00 91 1030.4
20260510133005 5 0 0.0 0.0 0.00 0.00 0.00 91 1030.4
20260510131504 6 0 0.0 0.0 0.00 0.00 0.00 91 1030.5
20260510130004 6 0 0.0 0.0 0.00 0.00 0.00 91 1030.5
20260510124504 6 0 0.0 0.0 0.00 0.00 0.00 92 1030.6
20260510123004 6 0 0.0 0.0 0.00 0.00 0.00 91 1030.6
20260510121504 6 0 0.0 0.0 0.00 0.00 0.00 90 1030.6
20260510120005 6 0 0.0 0.0 0.00 0.00 0.00 91 1030.6
20260510114504 6 0 0.0 0.0 0.00 0.00 0.00 89 1030.6
20260510113004 6 0 0.0 0.0 0.00 0.00 0.00 88 1030.5
20260510111504 6 0 0.0 0.0 0.00 0.00 0.00 88 1030.3
20260510110005 7 0 0.0 0.0 0.00 0.00 0.00 88 1030.2
20260510104504 7 0 0.0 0.0 0.00 0.00 0.00 88 1030.2
20260510103004 7 0 0.0 0.0 0.00 0.00 0.00 87 1030.1
20260510101504 8 0 0.0 0.0 0.00 0.00 0.00 87 1030.0
20260510100004 8 0 0.0 0.0 0.00 0.00 0.00 87 1030.0
20260510094504 9 0 0.0 0.0 0.00 0.00 0.00 87 1030.0
20260510091504 10 0 0.0 0.0 0.00 0.00 0.00 87 1029.7
20260510090005 10 0 0.0 0.0 0.00 0.00 0.00 86 1029.6
20260510084504 10 0 0.0 0.0 0.00 0.00 0.00 86 1029.6
20260510083004 10 0 0.0 0.0 0.00 0.00 0.00 83 1029.5
20260510081505 10 0 0.0 0.0 0.00 0.00 0.00 80 1029.3
20260510073005 12 0 0.0 0.0 0.00 0.00 0.00 79 1028.9
20260510071506 13 0 0.0 0.0 0.00 0.00 0.00 78 1028.9
20260510070005 13 0 0.0 0.0 0.00 0.00 0.00 77 1028.7
20260510064504 14 0 0.0 0.0 0.00 0.00 0.00 76 1028.7
20260510063004 14 0 0.0 0.0 0.00 0.00 0.00 75 1028.6
20260510061505 15 0 0.0 0.0 0.00 0.00 0.00 74 1028.6
20260510060005 15 0 0.0 0.0 0.00 0.00 0.00 72 1028.6
20260510054504 16 0 0.0 0.0 0.00 0.00 0.00 71 1028.4
20260510053005 16 0 0.0 0.0 0.00 0.00 0.00 71 1028.4
20260510051505 16 0 0.0 0.0 0.00 0.00 0.00 72 1028.4
20260510050005 15 0 0.0 0.0 0.00 0.00 0.00 73 1028.4
20260510044504 15 0 0.0 0.0 0.00 0.00 0.00 75 1028.4
20260510041505 15 0 0.0 0.0 0.00 0.00 0.00 77 1028.4
20260510040004 15 0 0.0 0.0 0.00 0.00 0.00 77 1028.5
20260510034504 15 0 0.0 0.0 0.00 0.00 0.00 79 1028.5
20260510033004 15 0 0.0 0.0 0.00 0.00 0.00 80 1028.6
20260510031504 15 0 0.0 0.0 0.00 0.00 0.00 79 1028.6
20260510030005 15 0 0.0 0.0 0.00 0.00 0.00 80 1028.7
20260510024504 15 0 0.0 0.0 0.00 0.00 0.00 81 1028.8
20260510023004 15 0 0.0 0.0 0.00 0.00 0.00 83 1029.1
20260510020004 14 0 0.0 0.0 0.00 0.00 0.00 87 1029.5
20260510014505 14 0 0.0 0.0 0.00 0.00 0.00 87 1029.6
20260510013004 14 0 0.0 0.0 0.00 0.00 0.00 90 1029.8
20260510011504 13 0 0.0 0.0 0.00 0.00 0.00 91 1029.8
20260510010005 13 0 0.0 0.0 0.00 0.00 0.00 91 1029.9
20260510004504 13 0 0.0 0.0 0.00 0.00 0.00 93 1029.9
20260510003005 13 0 0.0 0.0 0.00 0.00 0.00 94 1029.9
20260510001504 13 0 0.0 0.0 0.00 0.00 0.00 95 1029.9
20260510000004 13 0 0.0 0.0 0.00 0.00 0.00 95 1030.0
20260509234505 13 0 0.0 0.0 0.00 0.00 0.00 95 1029.9
20260509233004 13 0 0.0 0.0 0.00 0.00 0.00 96 1030.0
20260509231504 12 0 0.0 0.0 0.00 0.00 0.00 96 1029.9
20260509230004 12 0 0.0 0.0 0.00 0.00 0.00 95 1029.9
20260509224505 12 0 0.0 0.0 0.00 0.00 0.00 95 1029.8
20260509223005 12 0 0.0 0.0 0.00 0.00 0.00 95 1029.7
20260509221504 12 0 0.0 0.0 0.00 0.00 0.00 95 1029.6